[[{"header":{"parameterUnit":"m.s-1","parameterCategory":1,"la1":30.2991,"la2":30.254,"lo1":-89.0895,"lo2":-89.0444,"dy":0.0017,"dx":0.0017,"nx":28,"ny":28,"refTime":"2024-10-01T21:00:00:Z","depth":0,"parameterNumber":2,"parameterNumberName":"U-component_of_WINDS"},"data":[0,0,0,0,0,0,0,0,0,0,0,0,0,0,0,0,0,0,0,0,0,0,0,0,0,0,0,0,0,0,0,0,0,0,0,0,0,0,0,0,0,0,0,0,0,0,0,0,0,0,0,0,0,0,0,0,0,0,1.1581,1.1581,0,1.1612,1.1612,1.1612,1.1619,1.1619,1.1619,1.1619,1.1648,1.1649,1.165,0,0,0,0,0,0,0,0,0,0,0,0,0,1.1526,1.1527,1.1581,1.1581,1.1582,1.1611,1.1612,1.1612,1.1619,1.1619,1.1619,1.1618,1.1648,1.1649,1.165,0,0,0,0,0,0,0,0,0,0,0,0,0,1.1552,1.1527,1.1581,1.1589,1.159,1.1611,1.1612,1.1612,1.1619,1.1619,1.1619,1.1618,1.1647,1.1649,1.165,1.1665,0,0,1.1655,1.1655,0,0,0,0,0,0,0,0,1.1551,1.1554,1.1587,1.1588,1.159,1.1611,1.1603,1.163,1.1619,1.1608,1.1619,1.1618,1.1636,1.1638,1.1645,1.1667,1.1668,1.1655,1.1656,1.1656,1.1657,0,0,0,0,0,0,0,1.1549,1.1553,1.1593,1.1588,1.1589,1.159,1.1593,1.1608,1.1623,1.1609,1.161,1.1613,1.1636,1.1643,1.1645,1.1668,1.1655,1.1656,1.1657,1.1657,1.1703,1.1703,0,0,0,0,0,0,1.1546,1.1551,1.1592,1.1594,1.1569,1.1591,1.1595,1.1605,1.1623,1.1626,1.1613,1.1613,1.1641,1.1644,1.1646,1.1664,1.1656,1.1658,1.1658,1.1703,1.1703,1.1703,0,0,0,0,0,0,1.1545,1.155,1.1591,1.1573,1.1578,1.1592,1.1603,1.1605,1.1612,1.1627,1.1629,1.1618,1.1641,1.1644,1.166,1.1666,1.1658,1.166,1.1702,1.1703,1.1703,1.1701,0,0,0,0,0,0,1.1543,1.1549,1.1556,1.1573,1.1579,1.1605,1.1604,1.1606,1.1615,1.1615,1.1631,1.1634,1.1641,1.1658,1.1662,1.1667,1.1661,1.1702,1.1702,1.1703,1.1701,1.1702,1.1702,0,0,0,0,0,1.1541,1.1554,1.1556,1.1561,1.1588,1.1606,1.1609,1.1617,1.1615,1.1622,1.163,1.1633,1.1664,1.166,1.1664,1.167,1.1701,1.1702,1.1703,1.1701,1.1702,1.1702,0,0,0,0,0,0,1.1537,1.1557,1.1559,1.1578,1.159,1.1607,1.1615,1.1618,1.1631,1.163,1.164,1.1643,1.1658,1.1666,1.166,1.1685,1.1683,1.1684,1.168,1.1681,1.1681,1.1679,1.1662,0,0,0,0,0,1.1538,1.1552,1.1568,1.1583,1.1589,1.1601,1.1609,1.1614,1.1627,1.1632,1.1642,1.1653,1.1665,1.1673,1.1686,1.1702,1.1705,1.1708,1.1709,1.1709,1.171,1.1718,1.172,1.1706,1.1706,1.1706,0,0,1.1541,1.1554,1.1561,1.1582,1.1592,1.1605,1.1605,1.1619,1.1628,1.1634,1.1649,1.1657,1.167,1.1686,1.1693,1.1693,1.1715,1.171,1.1711,1.1711,1.1719,1.172,1.1722,1.1706,1.1706,1.1706,0,0,1.1553,1.1564,1.1577,1.1587,1.1602,1.1609,1.1612,1.1628,1.1634,1.165,1.1654,1.1664,1.1686,1.1695,1.1702,1.1715,1.1717,1.1719,1.1722,1.1729,1.173,1.1731,1.1735,1.1737,1.172,1.172,1.172,0,1.1554,1.1574,1.1583,1.1596,1.1605,1.1611,1.1623,1.1632,1.165,1.1655,1.1654,1.168,1.169,1.1707,1.171,1.1716,1.1719,1.1717,1.173,1.1731,1.1732,1.1735,1.1737,1.172,1.172,1.172,1.172,0,1.1574,1.1588,1.1597,1.1614,1.1623,1.1636,1.1646,1.1654,1.1659,1.1666,1.1681,1.1693,1.1707,1.1711,1.1715,1.1729,1.1728,1.1728,1.1726,1.1733,1.1736,1.1738,1.172,1.172,1.172,1.172,0,0,1.1584,1.1606,1.1609,1.1616,1.1633,1.1643,1.1655,1.1669,1.1676,1.1687,1.1697,1.1714,1.1715,1.1723,1.1728,1.1735,1.1743,1.1734,1.1735,1.1735,1.1757,1.1756,1.1758,1.1745,1.1745,1.1745,1.1755,0,1.1597,1.162,1.1628,1.1647,1.1659,1.1664,1.1674,1.1685,1.1692,1.1702,1.1709,1.1721,1.1721,1.1726,1.1733,1.174,1.1747,1.174,1.1753,1.1753,1.1749,1.176,1.1759,1.1768,1.1757,1.1757,1.1757,0,1.1615,1.1627,1.1647,1.1661,1.1666,1.1676,1.1688,1.1699,1.171,1.1714,1.1723,1.1727,1.1739,1.1736,1.1752,1.1747,1.1753,1.1757,1.1758,1.1759,1.1756,1.176,1.1772,1.1773,1.176,1.176,1.1759,0,1.1619,1.1641,1.1655,1.1661,1.1678,1.1684,1.1691,1.1703,1.171,1.1721,1.1725,1.1737,1.1744,1.1752,1.1759,1.1757,1.1774,1.1772,1.1777,1.1777,1.1781,1.178,1.1792,1.1785,1.1785,1.1785,1.1785,0,1.1632,1.1644,1.1657,1.1666,1.1678,1.1687,1.1699,1.1706,1.1716,1.1725,1.173,1.1739,1.1748,1.1757,1.1763,1.1774,1.1777,1.1781,1.1782,1.178,1.1779,1.1784,1.1783,1.1785,1.1785,1.1785,1.1785,0,1.1639,1.1648,1.1664,1.1678,1.1682,1.1691,1.1703,1.1711,1.1717,1.1729,1.1732,1.1743,1.1754,1.1762,1.1776,1.178,1.1792,1.1793,1.1788,1.1789,1.1793,1.1792,1.1808,1.181,1.1802,1.1802,1.1802,0,1.1647,1.1656,1.1671,1.1678,1.1685,1.1696,1.1703,1.1712,1.1719,1.1732,1.1738,1.175,1.176,1.1777,1.1785,1.1796,1.1797,1.1802,1.1799,1.1796,1.1797,1.1796,1.1796,1.1802,1.1802,1.1802,1.1803,0,1.1658,1.1662,1.1673,1.1686,1.1695,1.1705,1.1715,1.172,1.1729,1.1737,1.1749,1.1757,1.1771,1.1782,1.1793,1.18,1.1802,1.1803,1.1805,1.1803,1.1799,1.1801,1.1789,1.1803,1.1803,1.1803,1.1803,1.1803,1.1665,1.1673,1.1685,1.1696,1.1705,1.1714,1.1722,1.1729,1.1739,1.1752,1.1756,1.1768,1.1778,1.1793,1.18,1.1808,1.1808,1.1811,1.1811,1.1812,1.1811,1.1798,1.181,1.181,1.181,1.181,1.181,0,1.1676,1.1684,1.1695,1.1709,1.1717,1.172,1.1731,1.1738,1.1748,1.1758,1.1767,1.178,1.179,1.1799,1.1809,1.1815,1.1816,1.1817,1.1817,1.1818,1.1811,1.1808,1.1816,1.1816,1.1816,1.1816,1.1816,1.1816,1.1683,1.1696,1.1702,1.1718,1.1726,1.1738,1.1743,1.1751,1.1759,1.1773,1.1782,1.1788,1.1796,1.1807,1.1817,1.1819,1.1822,1.1823,1.1825,1.1819,1.1818,1.1818,1.1815,1.1824,1.1824,1.1831,1.1831,1.1831]},{"header":{"parameterUnit":"m.s-1","parameterCategory":1,"la1":30.2991,"la2":30.254,"lo1":-89.0895,"lo2":-89.0444,"dy":0.0017,"dx":0.0017,"nx":28,"ny":28,"refTime":"2024-10-01T21:00:00:Z","depth":0,"parameterNumber":3,"parameterNumberName":"V-component_of_WINDS"},"data":[0,0,0,0,0,0,0,0,0,0,0,0,0,0,0,0,0,0,0,0,0,0,0,0,0,0,0,0,0,0,0,0,0,0,0,0,0,0,0,0,0,0,0,0,0,0,0,0,0,0,0,0,0,0,0,0,0,0,1.1913,1.1913,0,1.1872,1.1872,1.1872,1.1835,1.1835,1.1835,1.1834,1.179,1.1789,1.1789,0,0,0,0,0,0,0,0,0,0,0,0,0,1.1957,1.1956,1.1913,1.1913,1.1912,1.1873,1.1872,1.1871,1.1836,1.1835,1.1835,1.1834,1.179,1.1789,1.1789,0,0,0,0,0,0,0,0,0,0,0,0,0,1.1929,1.1956,1.1913,1.189,1.1887,1.1873,1.1872,1.1871,1.1836,1.1835,1.1834,1.1834,1.1791,1.179,1.1788,1.1793,0,0,1.1785,1.1784,0,0,0,0,0,0,0,0,1.1931,1.1928,1.1894,1.1891,1.1888,1.1858,1.1871,1.1845,1.1836,1.1855,1.1834,1.1834,1.1813,1.181,1.1804,1.1791,1.179,1.1785,1.1784,1.1783,1.1783,0,0,0,0,0,0,0,1.1933,1.1929,1.1897,1.1893,1.189,1.188,1.1875,1.1866,1.1838,1.1853,1.1851,1.1846,1.1812,1.1805,1.1802,1.1789,1.1785,1.1784,1.1783,1.1782,1.1777,1.1778,0,0,0,0,0,0,1.1939,1.1931,1.1898,1.1896,1.1909,1.188,1.1875,1.1869,1.1838,1.1833,1.1847,1.1845,1.1807,1.1804,1.1801,1.1804,1.1783,1.1782,1.1782,1.1777,1.1777,1.1778,0,0,0,0,0,0,1.194,1.1936,1.19,1.1913,1.1907,1.188,1.1873,1.1868,1.1861,1.1833,1.1828,1.1846,1.1807,1.1802,1.1795,1.1802,1.1782,1.1781,1.1776,1.1777,1.1778,1.1811,0,0,0,0,0,0,1.1941,1.1937,1.1939,1.1913,1.1907,1.1896,1.1874,1.1868,1.186,1.1857,1.1831,1.1826,1.1806,1.1797,1.1794,1.18,1.178,1.1775,1.1776,1.1777,1.1809,1.1813,1.1816,0,0,0,0,0,1.1943,1.195,1.1939,1.1936,1.1909,1.1897,1.1893,1.1871,1.1861,1.1862,1.1844,1.1826,1.1802,1.1797,1.1793,1.1799,1.1775,1.1776,1.1777,1.1807,1.1812,1.1816,0,0,0,0,0,0,1.1977,1.1946,1.1934,1.1933,1.1918,1.1891,1.1892,1.1877,1.1864,1.1861,1.1833,1.1828,1.1824,1.181,1.1806,1.1801,1.1786,1.1786,1.181,1.1814,1.1817,1.182,1.1779,0,0,0,0,0,1.1984,1.1977,1.1951,1.1952,1.1945,1.192,1.1914,1.1898,1.1881,1.1874,1.1855,1.1839,1.1827,1.182,1.1808,1.1807,1.18,1.1809,1.1812,1.1815,1.1816,1.1813,1.1816,1.1782,1.1782,1.1782,0,0,1.1999,1.1982,1.1979,1.1958,1.1945,1.1937,1.1915,1.1908,1.1902,1.1873,1.1865,1.1851,1.183,1.1826,1.1823,1.1815,1.1824,1.1817,1.1819,1.1818,1.1815,1.1818,1.1821,1.1783,1.1783,1.1783,0,0,1.2023,1.2009,1.2009,1.1995,1.1975,1.1959,1.1959,1.1934,1.1923,1.1915,1.1893,1.1885,1.1865,1.1851,1.1842,1.1859,1.1842,1.1856,1.1874,1.1872,1.1874,1.1877,1.1882,1.1884,1.1857,1.1857,1.1857,0,1.2044,1.2033,1.201,1.2005,1.1996,1.197,1.1968,1.1956,1.1933,1.1927,1.1918,1.1893,1.1877,1.1869,1.1873,1.1867,1.1865,1.1859,1.1876,1.1878,1.188,1.1885,1.1887,1.1859,1.1859,1.1858,1.1858,0,1.2059,1.2051,1.2053,1.2032,1.2023,1.202,1.1996,1.199,1.1975,1.1959,1.195,1.193,1.1913,1.191,1.1895,1.19,1.1895,1.1881,1.1865,1.1885,1.1889,1.1891,1.1861,1.1861,1.186,1.186,0,0,1.2102,1.2069,1.207,1.2059,1.2035,1.2028,1.2023,1.2008,1.2002,1.1987,1.1981,1.1965,1.1953,1.1942,1.1925,1.1923,1.1937,1.191,1.1909,1.1915,1.1939,1.1949,1.1952,1.1926,1.1926,1.1926,1.1941,0,1.2121,1.2112,1.2091,1.2087,1.208,1.2054,1.205,1.2034,1.2018,1.2009,1.1991,1.198,1.1965,1.1958,1.1955,1.1936,1.1942,1.1935,1.1919,1.1919,1.1925,1.1954,1.1965,1.1979,1.1942,1.1943,1.1943,0,1.2142,1.2129,1.2125,1.2101,1.2096,1.2093,1.2076,1.2068,1.2049,1.2037,1.2025,1.2007,1.1999,1.1984,1.1972,1.1968,1.196,1.195,1.195,1.1947,1.1932,1.1951,1.1983,1.1985,1.1945,1.1945,1.1945,0,1.2173,1.2155,1.2149,1.2142,1.2113,1.2111,1.2099,1.2079,1.2071,1.2056,1.205,1.2034,1.2025,1.2013,1.199,1.1982,1.198,1.1964,1.1969,1.197,1.197,1.197,1.2,1.1966,1.1966,1.1966,1.1966,0,1.2196,1.2194,1.2163,1.216,1.2157,1.2132,1.213,1.2115,1.2098,1.209,1.2067,1.2061,1.2032,1.2021,1.2003,1.1995,1.1991,1.1981,1.1976,1.1983,1.1984,1.1977,1.1975,1.1966,1.1966,1.1966,1.1966,0,1.223,1.2209,1.2202,1.2176,1.2169,1.2168,1.2145,1.214,1.2124,1.2115,1.2111,1.2084,1.2071,1.2047,1.2027,1.2014,1.201,1.2002,1.2017,1.2013,1.202,1.2019,1.2046,1.2048,1.2014,1.2014,1.2014,0,1.2246,1.2244,1.2218,1.2212,1.2201,1.2191,1.2183,1.2158,1.215,1.2128,1.2126,1.2111,1.2097,1.2076,1.2054,1.2038,1.2029,1.204,1.2027,1.2033,1.2028,1.2028,1.2028,1.2043,1.2043,1.2044,1.2044,0,1.2276,1.2265,1.2254,1.224,1.223,1.2217,1.2203,1.2199,1.2171,1.2162,1.2149,1.2138,1.2118,1.2102,1.2083,1.2069,1.2051,1.2048,1.2048,1.2055,1.2063,1.2058,1.2024,1.2048,1.2047,1.2047,1.2047,1.2047,1.23,1.2297,1.2279,1.2267,1.2253,1.224,1.2235,1.2217,1.2206,1.2188,1.2174,1.2161,1.2141,1.2113,1.21,1.2089,1.2081,1.2081,1.2081,1.2082,1.2084,1.2066,1.2085,1.2085,1.2085,1.2085,1.2085,0,1.2328,1.2315,1.2304,1.2285,1.2276,1.2261,1.2244,1.2237,1.2226,1.221,1.2197,1.2181,1.2166,1.2143,1.2125,1.2121,1.2112,1.2117,1.2117,1.2113,1.2093,1.2094,1.2124,1.2124,1.2124,1.2124,1.2124,1.2124,1.2342,1.2335,1.2323,1.2309,1.2296,1.2284,1.2275,1.2263,1.2249,1.2232,1.222,1.2206,1.2186,1.2167,1.2152,1.2145,1.214,1.2147,1.2138,1.2119,1.2115,1.2111,1.2112,1.2146,1.2146,1.2159,1.2159,1.216]}]]